User: anonymous   Login
Location: Unspecified
(0.0000°N, 0.0000°E)
Time: 18:03:59
(UTC+00:00)
Language:

TBA - TO BE ASSIGNED - Orbit

View from above orbital plane
View from above orbital plane
View from above satellite
View from above satellite

Ground track
Ground track

The orbit is defined by the following mean orbital elements,

1 67773U          26145.52917168 +.00000000 +00000-0 +47083-3 0 00005
2 67773  51.9059 238.3537 0000422 116.1678 243.9328 14.79965753    07
Epoch (UTC): 25 May 2026 12:42:00
Eccentricity: 0.0000422
inclination: 51.9059°
perigee height: 629 km
apogee height: 630 km
right ascension of ascending node: 238.3537°
argument of perigee: 116.1678°
revolutions per day: 14.79965753
mean anomaly at epoch: 243.9328°

The dashed part of the orbit path shows where the satellite is in the earth's shadow,  

DLR